Погода в Иртышске

Погода в Иртышске : погода сейчас, прогноз погоды и архив. Всё, что Вы хотите узнать о погоде в Иртышске!

Хотите узнать прогноз погоды в Иртышске? Тогда Вам сюда: Погода в Иртышске

Поиск расширенной информации на нашем сайте:

Другие новости

Новости СМИ2

Главная страница сайта

Новости сайта

03.07.2017

Напоминаем, что на нашем специализированном сайте Метеоцентр.Азия вы можете получить высокодетализированные автоматические прогнозы погоды по пунктам России, СНГ и мира в авиационном формате (включающие направление и скорость ветра, видимость, явления погоды, количество и форму облачности, нижнюю и верхнюю границу облачности).

Рекомендуем: Описание автозапчасти для mercedes у нас на сайте.

Погода в Иртышске - сегодня

Время (UTC), дата Ветер
(°,м/с) 
Видим.   Явления Облачность Т
(°С)
Тd
(°С)
f(%) Тe
(°С)
Pmin
(гПа)
dP
(гПа)
Po
(мм)
O2
(г/м3)
Тmin Tmax R s Состояние
почвы
12 09.12.17 130 (ЮВ) н/о    10/10 600 м 
[Sc]
-5.3 -9.9 70 -8  1015.8  0.1  753  310           
15 09.12.17 тихо ()   н/о  слаб. снег  10/10 300 м 
[Ns]
-3 -4 93 -3  1016.6  0.8  753  307    -2.9  0.6     
18 09.12.17 тихо ()   н/о  {снег}  10/10 600 м 
[Sc]
-1.3 -3.9 82 -1  1017.4  754  306    -2.9  0.6     
21 09.12.17 тихо ()   н/о    ясно 
-8 -9.8 87 -8  1018.7  0.9  755  314           
00 10.12.17 160 (Ю) н/о    6/0 верхняя 
[Ci fib]
-7.1 -9.2 85 -7  1017.9  -0.7  754  313           
03 10.12.17 140 (ЮВ) 10 км    10/10 600 м 
[Sc]
-5.3 -7.4 85 -7  1017.7  -0.1  754  311      0.0  равномерный
сухой снег
100% 
06 10.12.17 140 (ЮВ) 10 км  слаб. снег  10/10 300 м 
[Ns]
-2 -3.5 89 -5  1014  -3.5  752  306  -8.2    0.0     
09 10.12.17 210 (ЮЗ) 10 км  позёмок{снег}  6/6 600 м 
[Sc]
-4.1 -6 87 -9  1014.8  0.7  752  308           
12 10.12.17 190 (Ю) н/о  {снег}  ясно 
-6.7 -10 77 -9  1015.9  0.9  753  312           
15 10.12.17 220 (ЮЗ) н/о    ясно 
-7.3 -10.3 79 -11  1017.9  754  313    -1.9     
18 10.12.17 210 (ЮЗ) н/о    10/10 600 м 
[Sc]
-9.3 -11.8 82 -12  1019.5  1.5  755  316    -1.9     
21 10.12.17 190 (Ю) н/о  {снег}  10/0 средняя 
[As op]
-8.1 -10.4 83 -11  1019  -0.5  755  315           
00 11.12.17 220 (ЮЗ) н/о  слаб. снег  10/10 600 м 
[Ns]
-9 -11.5 82 -11  1018.9  -0.1  755  316           
03 11.12.17 190 (Ю) 10 км  {снег}  6/6 600 м 
[Sc]
-10.3 -12.3 85 -12  1019.4  0.4  755  317      0.9  равномерный
сухой снег
100% 
06 11.12.17 160 (Ю) 10 км  {снег}  8/4 600 м верхняя 
[Sc|Ci fib]
-9.8 -12.4 81 -12  1019.4  755  317  -10.4    0.9     
09 11.12.17 180 (Ю) 10 км    10/0 средняя 
[As op]
-10.5 -13.4 79 -10  1019.7  0.3  756  318           
12 11.12.17 тихо ()   н/о    6/4 600 м верхняя 
[Sc|Ci fib]
-13.3 -15.3 85 -13  1021.2  1.4  757  322           
15 11.12.17 тихо ()   н/о    4/0 верхняя 
[Ci fib]
-14.9 -17.3 82 -15  1023  1.6  758  324    -9.7       
18 11.12.17 тихо ()   н/о    10/10 600 м 
[Sc]
-15.2 -17.6 82 -15  1025  759  325    -9.7       
21 11.12.17 040 (СВ) н/о    10/10 600 м 
[Sc]
-15.9 -18 84 -18  1027.6  2.5  761  327           
00 12.12.17 330 (СЗ) н/о    10/10 600 м 
[Sc]
-17 -19.6 80 -17  1029.3  1.7  762  329           
03 12.12.17 тихо ()   10 км    ясно 
-18 -20.6 80 -18  1031.7  2.3  764  331        равномерный
сухой снег
100% 
06 12.12.17 тихо ()   10 км    ясно 
-16.5 -19.1 80 -17  1034.3  2.7  766  330  -18.2         
09 12.12.17 тихо ()   10 км    ясно 
-13.9 -16.6 80 -14  1035.1  0.8  767  327           
12 12.12.17 тихо ()   н/о    ясно 
-19.7 -22.3 80 -20  1037.6  2.2  768  335           
Время (UTC), дата Ветер
(°,м/с) 
Видим.   Явления Облачность Т
(°С)
Тd
(°С)
f(%) Тe
(°С)
Pmin
(гПа)
dP
(гПа)
Po
(мм)
O2
(г/м3)
Тmin Tmax R s Состояние
почвы

Для получения пояснительной информации подведите курсор к названию столбца.

ПОГОДА в Иртышске - архив

Всё, что Вы хотите узнать о погоде в Иртышске - удобно и подробно!

Выберите нужную дату (начиная с 1 января 2015* года) и нажмите кнопку "Найти".
Будут отображены архивные сводки погоды по пункту Иртышск, начиная с указанной даты.


Отображать данные в формате CSV (для использования в таблицах Excel)


Внимание! Наш архив погоды предназначен исключительно для личного некоммерческого использования в познавательных целях. Если Вам необходимы официальные справки о состоянии погоды (для производственных, юридических, коммерческих и т.п. целей), обращайтесь в органы Росгидромета.

*Примечание: данная дата относится к архиву по метеостанциям СССР (Россия, СНГ, Балтия).
Архив по метеостанциям Зарубежной Европы и Азии (кроме Китая) хранится 10 дней, по другим регионам земного шара (Китай, Африка, Америка, Австралия, Океания) - 1 день.

Иртышск - район местоположения метеостанции


Название, широта, долгота, высота метеостанции:
Иртышск 53.3°ш. 75.4°д. 94 м над ур. моря [Казахстан]

Дополнительная информация

В oтличие oт бoльшинства пoгoдных сайтoв мы публикуем пoдрoбную метеoинфoрмацию в детальнoм прoфессиoнальнoм фoрмате.

Характеристики температуры и влажнoсти вoздуха измеряются на высoте 2 м в тени вдали oт зданий и деревьев.
Скoрoсть ветра измеряется на высoте 10 м (на урoвне рoста челoвека скoрoсть ветра ниже в 1.5-2 раза). Если метеoстанция нахoдится в гoрoде или в лесу, тo скoрoсть ветра занижена на 2-4 м/с пo сравнению с oткрытым местoм. Скoрoсть ветра над акватoриями крупных рек и oзёр, а также на вершинах хoлмoв на 2-5 м/с выше, чем в oбычных услoвиях.
Атмoсфернoе давление в разных тoчках местнoсти мoжет значительнo oтличаться oт давления на метеoстанции, в зависимoсти oт услoвий рельефа (при пoдъёме на 10 м давление пoнижается примернo на 1 мм рт.ст.).